Regional Weather Roundup
Issued by NWS Spokane, WA

Home | Current Version | Previous Version | Text Only | Print | Product List | Glossary On
Versions: 1 2 3 4 5 6 7 8 9 10 11 12 13 14 15 16 17 18 19 20 21 22 23 24 25 26 27 28 29 30 31 32 33 34 35 36 37 38 39 40 41 42 43 44 45 46 47 48 49 50
000
NZUS01 KOTX 291810
RWROTX
EASTERN WASHINGTON/NORTHERN IDAHO ROUNDUP
NATIONAL WEATHER SERVICE, SPOKANE WA
1000 AM PST THU JAN 29 2015

Note: "fair" indicated few or no clouds below 12,000 feet with no
significant weather and/or obstructions to visibility.

...NORTHEAST WASHINGTON AND NORTHERN IDAHO PANHANDLE...

CITY           SKY/WX    TMP DP  RH WIND       PRES   REMARKS
SPOKANE INTL   FOG       31  31 100 NE8       30.42S VSB 1/8 WCI  23
SPOKANE DOWNTO CLOUDY    35  31  85 N3        30.45S
COEUR D ALENE  MOSUNNY   36  30  80 NE14      30.43S
DEER PARK      MOSUNNY   30  29  96 S3        30.44S
SANDPOINT      CLOUDY    32  32 100 CALM      30.47R FOG
BONNERS FERRY  CLOUDY    32  28  86 E3        30.46S

...SOUTHEAST WASHINGTON AND SOUTHERN IDAHO PANHANDLE...

CITY           SKY/WX    TMP DP  RH WIND       PRES   REMARKS
WALLA WALLA    CLOUDY    36  33  89 CALM      30.46S FOG
PULLMAN/MOSCOW MOSUNNY   39  32  76 E9        30.41R
LEWISTON       FOG       35  34  96 CALM      30.44S VSB 1/4
LOWELL           N/A     37  31  78 N3        30.49F

...COLUMBIA BASIN...

CITY           SKY/WX    TMP DP  RH WIND       PRES   REMARKS
EPHRATA        CLOUDY    37  33  85 N7        30.46S
MOSES LAKE     CLOUDY    37  33  85 NE7       30.47S
TRI CITIES     CLOUDY    39  36  89 W6        30.51R
HERMISTON      CLOUDY    37  36  96 MISG      30.48S FOG
PENDLETON      CLOUDY    34  32  92 CALM      30.45R

...EAST SLOPES CASCADES...

CITY           SKY/WX    TMP DP  RH WIND       PRES   REMARKS
THE DALLES     CLOUDY    41  35  79 E7        30.50R
YAKIMA         CLOUDY    36  33  89 CALM      30.48S FOG
ELLENSBURG     CLOUDY    33  30  88 CALM      30.45R FOG
WENATCHEE      CLOUDY    34  29  82 NW6       30.49S WCI  29
OMAK           CLOUDY    33  29  85 N5        30.49S WCI  29

...SOUTHERN BRITISH COLUMBIA...

CITY           SKY/WX    TMP DP  RH WIND       PRES   REMARKS
PENTICTON      CLOUDY    36  28  75 E3        30.49S
CASTLEGAR      PTSUNNY   36  32  87 VRB2      30.49S
CRANBROOK      PTSUNNY   27  23  86 CALM      30.44S

...WESTERN MONTANA...

CITY           SKY/WX    TMP DP  RH WIND       PRES   REMARKS
MISSOULA       PTSUNNY   26  25  96 CALM      30.46F

...NEIGHBORING CITIES...

CITY           SKY/WX    TMP DP  RH WIND       PRES   REMARKS
SEATTLE        MOSUNNY   42  38  85 N3        30.35S
CALGARY        MOSUNNY   34  25  69 S5        30.20S WCI  30



USA.gov is the U.S. government's official web portal to all federal, state and local government web resources and services.